Location: STAR School
(35.3054°N, 111.2976°W)
Time: 03:45:01
(UTC-07:00)

Transit 2A Rocket - Pass Details

Date: 01 June 2019
Orbit: 586 x 917 km, 66.7° (Epoch: 17 June)

Event Time Altitude Azimuth Distance (km) Brightness Sun altitude
Rises 00:11:01 0° 340° (NNW) 3,352 9.3 -32.6°
Reaches altitude 10° 00:13:46 10° 349° (N) 2,361 8.4 -32.6°
Enters shadow 00:18:02 34° 39° (NE) 1,216 6.3 -32.7°
